Miscellaneous Local Product
Issued by NWS Hastings, NE

Home | Current Version | Previous Version | Graphics & Text | Print | Product List | Glossary On
Versions: 1 2 3 4 5 6 7 8 9 10 11 12 13 14 15 16 17 18 19 20 21 22 23 24 25 26 27 28 29 30 31 32 33 34 35 36 37 38 39 40 41 42 43 44 45 46 47 48 49 50
614
AXUS43 KGID 261102
MISGRI

GID CWA HOURLY WEATHER ROUNDUP
NATIONAL WEATHER SERVICE HASTINGS NE
500 AM CST SUN FEB 26 2017

NOTE: "FAIR" INDICATES FEW OR NO CLOUDS BELOW 12,000 FEET WITH NO
SIGNIFICANT WEATHER AND/OR OBSTRUCTIONS TO VISIBILITY.

...SOUTH CENTRAL NEBRASKA...

CITY           SKY/WX    TMP DP  RH WIND       PRES   REMARKS
GRAND ISLAND   CLEAR     29  18  63 SW16      29.85F WCI  17
HASTINGS       CLEAR     23  17  78 W5        29.87S WCI  17
KEARNEY        CLEAR     28  14  54 W10       29.87R WCI  19
ORD            CLEAR     21  10  62 W10       29.81S WCI  10
YORK           CLEAR     28  23  80 SW12      29.85F WCI  18
AURORA         CLEAR     27  19  71 W12       29.85F WCI  17
LEXINGTON      CLEAR     25  16  68 W9        29.86R WCI  15
HOLDREGE       CLEAR     29  13  52 W9        29.88R WCI  20
HEBRON         CLOUDY    36  21  55 S18       29.91S WCI  26

...NEBRASKA PANHANDLE...

CITY           SKY/WX    TMP DP  RH WIND       PRES   REMARKS
CHADRON        CLEAR     10   0  63 W8        29.80S WCI  -2
ALLIANCE       CLEAR      2  -3  80 W13       29.78S WCI -15
SCOTTSBLUFF    CLEAR      9   2  73 N6        29.82R WCI  -1
SIDNEY         CLEAR     14   3  61 W12       29.81S WCI   0

...WESTERN AND NORTH CENTRAL NEBRASKA...

CITY           SKY/WX    TMP DP  RH WIND       PRES   REMARKS
VALENTINE      CLEAR     11   3  70 W10       29.79R WCI  -3
AINSWORTH      CLEAR     15   9  78 W7        29.78R WCI   5
ONEILL         CLEAR     18  10  70 W12       29.79R WCI   6
BROKEN BOW     CLEAR     22  11  62 W12       29.82R WCI  10
IMPERIAL       CLEAR     21  14  74 W9        29.86S WCI  11
NORTH PLATTE   CLEAR     14   9  80 NW6       29.85R WCI   5
MCCOOK         MOCLDY    22  15  75 NW8       29.89R WCI  12

...EASTERN NEBRASKA...

CITY           SKY/WX    TMP DP  RH WIND       PRES   REMARKS
NORFOLK        CLEAR     19  11  70 SW12      29.81R WCI   7
SO SIOUX CITY  CLEAR     20  13  74 W7        29.82S WCI  11
TEKAMAH        CLEAR     22  17  81 SW8       29.85R WCI  12
COLUMBUS       CLEAR     25  16  68 W5        29.84F WCI  19
ALBION         CLEAR     21  11  66 CALM      29.82S
OMAHA EPPLEY   MOCLDY    34  21  59 W12       29.86S WCI  25
OFFUTT AFB     CLEAR     31  20  64 SW10      29.87R WCI  22
MILLARD        CLEAR     33  24  69 SW7       29.87R WCI  27
LINCOLN        CLEAR     32  22  66 SW10      29.89S WCI  24
NEBRASKA CITY  MOCLDY    31  20  65 SW10      29.89S WCI  22
BEATRICE       CLOUDY    34  24  66 SW14      29.90F WCI  25
FALLS CITY     PTCLDY    31  19  61 SW10      29.94S WCI  22

...NORTHERN KANSAS...

CITY           SKY/WX    TMP DP  RH WIND       PRES   REMARKS
GOODLAND       CLEAR     10   5  80 W7        29.85R WCI  -1
HILL CITY      NOT AVBL
PHILLIPSBURG   CLEAR     21  14  73 W3        29.91R
SMITH CENTER   CLEAR     23  18  80 S5        29.92R WCI  17
HAYS           CLEAR     21  13  71 NE6       29.89R WCI  13
RUSSELL        CLEAR     25  15  66 NE7       29.89R WCI  17
CONCORDIA      CLOUDY    35  17  47 SW10      29.93R WCI  27
SALINA         CLOUDY    35  33  92 SE3       29.94F
TOPEKA         CLOUDY    39  18  42 SW8       29.99R WCI  33



USA.gov is the U.S. government's official web portal to all federal, state and local government web resources and services.